{"data":{"norad_id":67269,"intl_designator":"2025-313X","name":"2025-313X","alt_names":[],"object_type":"PAYLOAD","status":"ACTIVE","operator":null,"country":"TBD","launch_date":"2025-12-28","launch_site_code":"VOSTO","launch_vehicle":null,"mission":null,"orbit_class":"UNKNOWN","rcs_meters":null,"size_class":null,"mass_kg":null,"dimensions":null,"purposes":[],"wikipedia_slug":null,"has_3d_model":false,"image_url":null,"decayed_at":null,"tle_current":{"epoch":"2026-05-25T04:32:24.878976Z","epoch_age_seconds":55880,"freshness":"FRESH","line1":"1 67269U 25313X   26145.18917684  .00012929  00000+0  53116-3 0  9997","line2":"2 67269  97.3970 220.4384 0015547  85.3245 274.9768 15.24209919 22468","mean_motion":15.24209919,"eccentricity":0.0015547,"inclination_deg":97.397,"raan_deg":220.4384,"arg_perigee_deg":85.3245,"mean_anomaly_deg":274.9768,"bstar":0.00053116,"rev_number":2246,"period_min":94.475175764815,"perigee_km":482.47611599499,"apogee_km":503.84172352789,"semimajor_km":6871.2959197614,"source":"CELESTRAK","updated_at":"2026-05-25T13:38:06.849845Z"}}}